This demonstration page uses our WeatherBlox Daily Observations layout. Learn more.

Left ArrowRight Arrow

Hourly Observations for April 23, 2020

Temp ( °F °C ) Dew Point ( °F °C ) Humidity (%) Winds ( mph kmh ) Pressure ( in mb ) Visibility ( mi km ) Precip ( " mm )
12:51 am 00:51 Clear 61 16.1 35 1.7 38 38 NNW 9 15 29.9 1013 10 16.0934 0 0
1:51 am 01:51 Clear 56 13.3 33 0.6 42 42 WNW 8 13 29.89 1012 10 16.0934 0 0
2:51 am 02:51 Clear 59 15 35 1.7 41 41 NW 9 15 29.88 1012 10 16.0934 0 0
3:51 am 03:51 Clear 52 11.1 34 1.1 50 50 ESE 3 6 29.9 1012 10 16.0934 0 0
4:51 am 04:51 Clear 54 12.2 35 1.7 49 49 ESE 3 6 29.91 1013 10 16.0934 0 0
5:51 am 05:51 Sunny 51 10.6 34 1.1 52 52 SSE 6 9 29.92 1013 10 16.0934 0 0
6:51 am 06:51 Sunny 57 13.9 36 2.2 45 45 SE 3 6 29.93 1013 10 16.0934 0 0
7:51 am 07:51 Sunny 63 17.2 36 2.2 37 37 Calm 29.93 1014 10 16.0934 0 0
8:51 am 08:51 Sunny 70 21.1 36 2.2 29 29 Calm 29.92 1013 10 16.0934 0 0
9:51 am 09:51 Sunny 76 24.4 35 1.7 23 23 VRB 7 11 29.91 1013 10 16.0934 0 0
10:51 am 10:51 Sunny 82 27.8 31 -0.6 16 16 WNW 10 17 29.88 1012 10 16.0934 0 0
11:51 am 11:51 Sunny 85 29.4 28 -2.2 13 13 W 16 26 29.84 1011 10 16.0934 0 0
12:51 pm 12:51 Sunny 86 30 26 -3.3 11 11 NW 20 31 29.8 1009 10 16.0934 0 0
1:51 pm 13:51 Sunny 88 31.1 28 -2.2 11 11 W 20 31 29.78 1009 10 16.0934 0 0
2:51 pm 14:51 Sunny 89 31.7 28 -2.2 11 11 W 15 24 29.74 1007 10 16.0934 0 0
3:51 pm 15:51 Sunny 88 31.1 28 -2.2 11 11 W 17 28 29.73 1007 10 16.0934 0 0
4:51 pm 16:51 Sunny 88 31.1 29 -1.7 12 12 WNW 20 31 29.72 1007 10 16.0934 0 0
5:51 pm 17:51 Sunny 85 29.4 29 -1.7 13 13 WNW 21 33 29.74 1007 10 16.0934 0 0
6:51 pm 18:51 Sunny 81 27.2 30 -1.1 16 16 W 15 24 29.76 1008 10 16.0934 0 0
7:51 pm 19:51 Clear 77 25 31 -0.6 18 18 W 9 15 29.78 1008 10 16.0934 0 0
8:51 pm 20:51 Clear 74 23.3 31 -0.6 20 20 NW 9 15 29.8 1009 10 16.0934 0 0
9:51 pm 21:51 Clear 69 20.6 31 -0.6 24 24 NNW 8 13 29.81 1010 10 16.0934 0 0
10:51 pm 22:51 Clear 70 21.1 31 -0.6 23 23 NNW 10 17 29.79 1009 10 16.0934 0 0
11:51 pm 23:51 Clear 72 22.2 31 -0.6 22 22 NNW 10 17 29.78 1008 10 16.0934 0 0

Powered by AerisWeather